Year,Month,Day,Hour,Minute,Value (Times are PST for temperature in C)
2015,02,24,00,00,2.80
2015,02,24,00,01,2.80
2015,02,24,00,02,2.80
2015,02,24,00,03,2.80
2015,02,24,00,04,2.80
2015,02,24,00,05,2.80
2015,02,24,00,06,2.80
2015,02,24,00,07,2.80
2015,02,24,00,08,2.90
2015,02,24,00,09,2.90
2015,02,24,00,10,2.90
2015,02,24,00,11,2.90
2015,02,24,00,12,3.00
2015,02,24,00,13,3.00
2015,02,24,00,14,3.00
2015,02,24,00,15,3.00
2015,02,24,00,16,3.00
2015,02,24,00,17,3.10
2015,02,24,00,18,3.00
2015,02,24,00,19,3.00
2015,02,24,00,20,3.00
2015,02,24,00,21,3.00
2015,02,24,00,22,3.00
2015,02,24,00,23,2.90
2015,02,24,00,24,2.90
2015,02,24,00,25,2.90
2015,02,24,00,26,2.90
2015,02,24,00,27,2.90
2015,02,24,00,28,2.80
2015,02,24,00,29,2.80
2015,02,24,00,30,2.80
2015,02,24,00,31,2.80
2015,02,24,00,32,2.80
2015,02,24,00,33,2.80
2015,02,24,00,34,2.70
2015,02,24,00,35,2.70
2015,02,24,00,36,2.70
2015,02,24,00,37,2.70
2015,02,24,00,38,2.70
2015,02,24,00,39,2.70
2015,02,24,00,40,2.70
2015,02,24,00,41,2.60
2015,02,24,00,42,2.60
2015,02,24,00,43,2.50
2015,02,24,00,44,2.50
2015,02,24,00,45,2.50
2015,02,24,00,46,2.40
2015,02,24,00,47,2.40
2015,02,24,00,48,2.40
2015,02,24,00,49,2.50
2015,02,24,00,50,2.50
2015,02,24,00,51,2.60
2015,02,24,00,52,2.60
2015,02,24,00,53,2.60
2015,02,24,00,54,2.70
2015,02,24,00,55,2.70
2015,02,24,00,56,2.70
2015,02,24,00,57,2.80
2015,02,24,00,58,2.80
2015,02,24,00,59,2.80
2015,02,24,01,00,2.70
2015,02,24,01,01,2.70
2015,02,24,01,02,2.70
2015,02,24,01,03,2.60
2015,02,24,01,04,2.60
2015,02,24,01,05,2.60
2015,02,24,01,06,2.60
2015,02,24,01,07,2.60
2015,02,24,01,08,2.60
2015,02,24,01,09,2.50
2015,02,24,01,10,2.50
2015,02,24,01,11,2.50
2015,02,24,01,12,2.50
2015,02,24,01,13,2.50
2015,02,24,01,14,2.50
2015,02,24,01,15,2.50
2015,02,24,01,16,2.50
2015,02,24,01,17,2.50
2015,02,24,01,18,2.50
2015,02,24,01,19,2.50
2015,02,24,01,20,2.60
2015,02,24,01,21,2.60
2015,02,24,01,22,2.60
2015,02,24,01,23,2.60
2015,02,24,01,24,2.60
2015,02,24,01,25,2.70
2015,02,24,01,26,2.70
2015,02,24,01,27,2.70
2015,02,24,01,28,2.70
2015,02,24,01,29,2.70
2015,02,24,01,30,2.70
2015,02,24,01,31,2.70
2015,02,24,01,32,2.70
2015,02,24,01,33,2.60
2015,02,24,01,34,2.60
2015,02,24,01,35,2.60
2015,02,24,01,36,2.60
2015,02,24,01,37,2.60
2015,02,24,01,38,2.60
2015,02,24,01,39,2.60
2015,02,24,01,40,2.60
2015,02,24,01,41,2.60
2015,02,24,01,42,2.60
2015,02,24,01,43,2.70
2015,02,24,01,44,2.70
2015,02,24,01,45,2.80
2015,02,24,01,46,2.80
2015,02,24,01,47,2.90
2015,02,24,01,48,2.90
2015,02,24,01,49,2.90
2015,02,24,01,50,2.90
2015,02,24,01,51,2.90
2015,02,24,01,52,2.90
2015,02,24,01,53,2.90
2015,02,24,01,54,2.90
2015,02,24,01,55,2.90
2015,02,24,01,56,2.90
2015,02,24,01,57,2.90
2015,02,24,01,58,2.90
2015,02,24,01,59,3.00
2015,02,24,02,00,3.10
2015,02,24,02,01,3.10
2015,02,24,02,02,3.20
2015,02,24,02,03,3.20
2015,02,24,02,04,3.30
2015,02,24,02,05,3.30
2015,02,24,02,06,3.30
2015,02,24,02,07,3.40
2015,02,24,02,08,3.40
2015,02,24,02,09,3.40
2015,02,24,02,10,3.40
2015,02,24,02,11,3.40
2015,02,24,02,12,3.40
2015,02,24,02,13,3.30
2015,02,24,02,14,3.30
2015,02,24,02,15,3.30
2015,02,24,02,16,3.20
2015,02,24,02,17,3.20
2015,02,24,02,18,3.10
2015,02,24,02,19,3.00
2015,02,24,02,20,2.90
2015,02,24,02,21,2.80
2015,02,24,02,22,2.80
2015,02,24,02,23,2.70
2015,02,24,02,24,2.60
2015,02,24,02,25,2.60
2015,02,24,02,26,2.50
2015,02,24,02,27,2.40
2015,02,24,02,28,2.40
2015,02,24,02,29,2.40
2015,02,24,02,30,2.30
2015,02,24,02,31,2.30
2015,02,24,02,32,2.30
2015,02,24,02,33,2.30
2015,02,24,02,34,2.40
2015,02,24,02,35,2.40
2015,02,24,02,36,2.40
2015,02,24,02,37,2.40
2015,02,24,02,38,2.40
2015,02,24,02,39,2.40
2015,02,24,02,40,2.50
2015,02,24,02,41,2.50
2015,02,24,02,42,2.50
2015,02,24,02,43,2.50
2015,02,24,02,44,2.40
2015,02,24,02,45,2.40
2015,02,24,02,46,2.40
2015,02,24,02,47,2.30
2015,02,24,02,48,2.30
2015,02,24,02,49,2.30
2015,02,24,02,50,2.20
2015,02,24,02,51,2.20
2015,02,24,02,52,2.20
2015,02,24,02,53,2.20
2015,02,24,02,54,2.20
2015,02,24,02,55,2.20
2015,02,24,02,56,2.20
2015,02,24,02,57,2.20
2015,02,24,02,58,2.20
2015,02,24,02,59,2.20
2015,02,24,03,00,2.30
2015,02,24,03,01,2.30
2015,02,24,03,02,2.30
2015,02,24,03,03,2.30
2015,02,24,03,04,2.30
2015,02,24,03,05,2.30
2015,02,24,03,06,2.40
2015,02,24,03,07,2.40
2015,02,24,03,08,2.40
2015,02,24,03,09,2.40
2015,02,24,03,10,2.40
2015,02,24,03,11,2.40
2015,02,24,03,12,2.40
2015,02,24,03,13,2.40
2015,02,24,03,14,2.40
2015,02,24,03,15,2.30
2015,02,24,03,16,2.30
2015,02,24,03,17,2.30
2015,02,24,03,18,2.30
2015,02,24,03,19,2.30
2015,02,24,03,20,2.30
2015,02,24,03,21,2.20
2015,02,24,03,22,2.20
2015,02,24,03,23,2.20
2015,02,24,03,24,2.20
2015,02,24,03,25,2.20
2015,02,24,03,26,2.20
2015,02,24,03,27,2.20
2015,02,24,03,28,2.20
2015,02,24,03,29,2.20
2015,02,24,03,30,2.20
2015,02,24,03,31,2.20
2015,02,24,03,32,2.20
2015,02,24,03,33,2.20
2015,02,24,03,34,2.20
2015,02,24,03,35,2.20
2015,02,24,03,36,2.20
2015,02,24,03,37,2.20
2015,02,24,03,38,2.20
2015,02,24,03,39,2.20
2015,02,24,03,40,2.10
2015,02,24,03,41,2.10
2015,02,24,03,42,2.10
2015,02,24,03,43,2.10
2015,02,24,03,44,2.00
2015,02,24,03,45,2.00
2015,02,24,03,46,2.00
2015,02,24,03,47,1.90
2015,02,24,03,48,1.90
2015,02,24,03,49,1.90
2015,02,24,03,50,1.80
2015,02,24,03,51,1.80
2015,02,24,03,52,1.80
2015,02,24,03,53,1.80
2015,02,24,03,54,1.70
2015,02,24,03,55,1.70
2015,02,24,03,56,1.70
2015,02,24,03,57,1.70
2015,02,24,03,58,1.70
2015,02,24,03,59,1.60
2015,02,24,04,00,1.60
2015,02,24,04,01,1.60
2015,02,24,04,02,1.70
2015,02,24,04,03,1.70
2015,02,24,04,04,1.70
2015,02,24,04,05,1.70
2015,02,24,04,06,1.80
2015,02,24,04,07,1.80
2015,02,24,04,08,1.90
2015,02,24,04,09,2.00
2015,02,24,04,10,2.00
2015,02,24,04,11,2.10
2015,02,24,04,12,2.10
2015,02,24,04,13,2.10
2015,02,24,04,14,2.10
2015,02,24,04,15,2.10
2015,02,24,04,16,2.10
2015,02,24,04,17,2.10
2015,02,24,04,18,2.10
2015,02,24,04,19,2.10
2015,02,24,04,20,2.10
2015,02,24,04,21,2.10
2015,02,24,04,22,2.00
2015,02,24,04,23,2.00
2015,02,24,04,24,1.90
2015,02,24,04,25,1.90
2015,02,24,04,26,1.80
2015,02,24,04,27,1.80
2015,02,24,04,28,1.70
2015,02,24,04,29,1.60
2015,02,24,04,30,1.60
2015,02,24,04,31,1.50
2015,02,24,04,32,1.50
2015,02,24,04,33,1.50
2015,02,24,04,34,1.40
2015,02,24,04,35,1.40
2015,02,24,04,36,1.40
2015,02,24,04,37,1.40
2015,02,24,04,38,1.40
2015,02,24,04,39,1.40
2015,02,24,04,40,1.40
2015,02,24,04,41,1.40
2015,02,24,04,42,1.40
2015,02,24,04,43,1.40
2015,02,24,04,44,1.40
2015,02,24,04,45,1.40
2015,02,24,04,46,1.40
2015,02,24,04,47,1.40
2015,02,24,04,48,1.40
2015,02,24,04,49,1.40
2015,02,24,04,50,1.40
2015,02,24,04,51,1.40
2015,02,24,04,52,1.40
2015,02,24,04,53,1.40
2015,02,24,04,54,1.30
2015,02,24,04,55,1.30
2015,02,24,04,56,1.20
2015,02,24,04,57,1.20
2015,02,24,04,58,1.10
2015,02,24,04,59,1.10
2015,02,24,05,00,1.10
2015,02,24,05,01,1.10
2015,02,24,05,02,1.10
2015,02,24,05,03,1.20
2015,02,24,05,04,1.20
2015,02,24,05,05,1.20
2015,02,24,05,06,1.20
2015,02,24,05,07,1.20
2015,02,24,05,08,1.20
2015,02,24,05,09,1.30
2015,02,24,05,10,1.30
2015,02,24,05,11,1.30
2015,02,24,05,12,1.20
2015,02,24,05,13,1.20
2015,02,24,05,14,1.20
2015,02,24,05,15,1.20
2015,02,24,05,16,1.20
2015,02,24,05,17,1.20
2015,02,24,05,18,1.20
2015,02,24,05,19,1.20
2015,02,24,05,20,1.20
2015,02,24,05,21,1.10
2015,02,24,05,22,1.10
2015,02,24,05,23,1.10
2015,02,24,05,24,1.10
2015,02,24,05,25,1.10
2015,02,24,05,26,1.10
2015,02,24,05,27,1.10
2015,02,24,05,28,1.00
2015,02,24,05,29,1.00
2015,02,24,05,30,0.90
2015,02,24,05,31,0.90
2015,02,24,05,32,0.90
2015,02,24,05,33,0.80
2015,02,24,05,34,0.80
2015,02,24,05,35,0.80
2015,02,24,05,36,0.80
2015,02,24,05,37,0.70
2015,02,24,05,38,0.70
2015,02,24,05,39,0.70
2015,02,24,05,40,0.70
2015,02,24,05,41,0.70
2015,02,24,05,42,0.70
2015,02,24,05,43,0.80
2015,02,24,05,44,0.90
2015,02,24,05,45,0.90
2015,02,24,05,46,1.00
2015,02,24,05,47,1.10
2015,02,24,05,48,1.10
2015,02,24,05,49,1.20
2015,02,24,05,50,1.20
2015,02,24,05,51,1.20
2015,02,24,05,52,1.30
2015,02,24,05,53,1.40
2015,02,24,05,54,1.50
2015,02,24,05,55,1.60
2015,02,24,05,56,1.70
2015,02,24,05,57,1.70
2015,02,24,05,58,1.70
2015,02,24,05,59,1.70
2015,02,24,06,00,1.80
2015,02,24,06,01,1.80
2015,02,24,06,02,1.70
2015,02,24,06,03,1.70
2015,02,24,06,04,1.70
2015,02,24,06,05,1.70
2015,02,24,06,06,1.60
2015,02,24,06,07,1.70
2015,02,24,06,08,1.70
2015,02,24,06,09,1.70
2015,02,24,06,10,1.70
2015,02,24,06,11,1.70
2015,02,24,06,12,1.60
2015,02,24,06,13,1.60
2015,02,24,06,14,1.60
2015,02,24,06,15,1.60
2015,02,24,06,16,1.60
2015,02,24,06,17,1.50
2015,02,24,06,18,1.50
2015,02,24,06,19,1.50
2015,02,24,06,20,1.50
2015,02,24,06,21,1.50
2015,02,24,06,22,1.50
2015,02,24,06,23,1.50
2015,02,24,06,24,1.50
2015,02,24,06,25,1.40
2015,02,24,06,26,1.40
2015,02,24,06,27,1.40
2015,02,24,06,28,1.40
2015,02,24,06,29,1.30
2015,02,24,06,30,1.20
2015,02,24,06,31,1.20
2015,02,24,06,32,1.00
2015,02,24,06,33,0.90
2015,02,24,06,34,0.80
2015,02,24,06,35,0.70
2015,02,24,06,36,0.60
2015,02,24,06,37,0.50
2015,02,24,06,38,0.50
2015,02,24,06,39,0.40
2015,02,24,06,40,0.40
2015,02,24,06,41,0.30
2015,02,24,06,42,0.30
2015,02,24,06,43,0.30
2015,02,24,06,44,0.30
2015,02,24,06,45,0.30
2015,02,24,06,46,0.30
2015,02,24,06,47,0.30
2015,02,24,06,48,0.30
2015,02,24,06,49,0.30
2015,02,24,06,50,0.40
2015,02,24,06,51,0.30
2015,02,24,06,52,0.30
2015,02,24,06,53,0.30
2015,02,24,06,54,0.30
2015,02,24,06,55,0.30
2015,02,24,06,56,0.30
2015,02,24,06,57,0.30
2015,02,24,06,58,0.30
2015,02,24,06,59,0.20
2015,02,24,07,00,0.20
2015,02,24,07,01,0.20
2015,02,24,07,02,0.30
2015,02,24,07,03,0.30
2015,02,24,07,04,0.30
2015,02,24,07,05,0.30
2015,02,24,07,06,0.30
2015,02,24,07,07,0.30
2015,02,24,07,08,0.30
2015,02,24,07,09,0.30
2015,02,24,07,10,0.30
2015,02,24,07,11,0.40
2015,02,24,07,12,0.40
2015,02,24,07,13,0.30
2015,02,24,07,14,0.30
2015,02,24,07,15,0.30
2015,02,24,07,16,0.30
2015,02,24,07,17,0.30
2015,02,24,07,18,0.30
2015,02,24,07,19,0.30
2015,02,24,07,20,0.40
2015,02,24,07,21,0.40
2015,02,24,07,22,0.40
2015,02,24,07,23,0.40
2015,02,24,07,24,0.50
2015,02,24,07,25,0.50
2015,02,24,07,26,0.60
2015,02,24,07,27,0.60
2015,02,24,07,28,0.70
2015,02,24,07,29,0.70
2015,02,24,07,30,0.80
2015,02,24,07,31,0.80
2015,02,24,07,32,0.90
2015,02,24,07,33,0.90
2015,02,24,07,34,0.90
2015,02,24,07,35,1.00
2015,02,24,07,36,1.00
2015,02,24,07,37,1.10
2015,02,24,07,38,1.10
2015,02,24,07,39,1.10
2015,02,24,07,40,1.20
2015,02,24,07,41,1.20
2015,02,24,07,42,1.20
2015,02,24,07,43,1.30
2015,02,24,07,44,1.30
2015,02,24,07,45,1.40
2015,02,24,07,46,1.40
2015,02,24,07,47,1.40
2015,02,24,07,48,1.50
2015,02,24,07,49,1.50
2015,02,24,07,50,1.60
2015,02,24,07,51,1.60
2015,02,24,07,52,1.70
2015,02,24,07,53,1.70
2015,02,24,07,54,1.70
2015,02,24,07,55,1.70
2015,02,24,07,56,1.80
2015,02,24,07,57,1.80
2015,02,24,07,58,1.90
2015,02,24,07,59,2.00
2015,02,24,08,00,2.10
2015,02,24,08,01,2.10
2015,02,24,08,02,2.20
2015,02,24,08,03,2.20
2015,02,24,08,04,2.20
2015,02,24,08,05,2.20
2015,02,24,08,06,2.20
2015,02,24,08,07,2.20
2015,02,24,08,08,2.20
2015,02,24,08,09,2.20
2015,02,24,08,10,2.30
2015,02,24,08,11,2.30
2015,02,24,08,12,2.20
2015,02,24,08,13,2.20
2015,02,24,08,14,2.30
2015,02,24,08,15,2.30
2015,02,24,08,16,2.40
2015,02,24,08,17,2.40
2015,02,24,08,18,2.40
2015,02,24,08,19,2.50
2015,02,24,08,20,2.40
2015,02,24,08,21,2.40
2015,02,24,08,22,2.40
2015,02,24,08,23,2.40
2015,02,24,08,24,2.40
2015,02,24,08,25,2.50
2015,02,24,08,26,2.50
2015,02,24,08,27,2.50
2015,02,24,08,28,2.60
2015,02,24,08,29,2.60
2015,02,24,08,30,2.70
2015,02,24,08,31,2.70
2015,02,24,08,32,2.70
2015,02,24,08,33,2.70
2015,02,24,08,34,2.80
2015,02,24,08,35,2.80
2015,02,24,08,36,2.90
2015,02,24,08,37,2.90
2015,02,24,08,38,2.90
2015,02,24,08,39,3.00
2015,02,24,08,40,3.00
2015,02,24,08,41,3.00
2015,02,24,08,42,3.10
2015,02,24,08,43,3.10
2015,02,24,08,44,3.10
2015,02,24,08,45,3.20
2015,02,24,08,46,3.20
2015,02,24,08,47,3.30
2015,02,24,08,48,3.30
2015,02,24,08,49,3.40
2015,02,24,08,50,3.40
2015,02,24,08,51,3.50
2015,02,24,08,52,3.60
2015,02,24,08,53,3.60
2015,02,24,08,54,3.70
2015,02,24,08,55,3.80
2015,02,24,08,56,3.90
2015,02,24,08,57,4.00
2015,02,24,08,58,4.10
2015,02,24,08,59,4.20
2015,02,24,09,00,4.30
2015,02,24,09,01,4.40
2015,02,24,09,02,4.40
2015,02,24,09,03,4.50
2015,02,24,09,04,4.50
2015,02,24,09,05,4.50
2015,02,24,09,06,4.50
2015,02,24,09,07,4.60
2015,02,24,09,08,4.60
2015,02,24,09,09,4.60
2015,02,24,09,10,4.70
2015,02,24,09,11,4.70
2015,02,24,09,12,4.70
2015,02,24,09,13,4.70
2015,02,24,09,14,4.80
2015,02,24,09,15,4.80
2015,02,24,09,16,4.80
2015,02,24,09,17,4.80
2015,02,24,09,18,4.90
2015,02,24,09,19,4.90
2015,02,24,09,20,4.90
2015,02,24,09,21,5.00
2015,02,24,09,22,5.00
2015,02,24,09,23,5.10
2015,02,24,09,24,5.10
2015,02,24,09,25,5.10
2015,02,24,09,26,5.10
2015,02,24,09,27,5.10
2015,02,24,09,28,5.20
2015,02,24,09,29,5.20
2015,02,24,09,30,5.20
2015,02,24,09,31,5.30
2015,02,24,09,32,5.30
2015,02,24,09,33,5.40
2015,02,24,09,34,5.50
2015,02,24,09,35,5.50
2015,02,24,09,36,5.60
2015,02,24,09,37,5.70
2015,02,24,09,38,5.80
2015,02,24,09,39,5.90
2015,02,24,09,40,5.90
2015,02,24,09,41,6.00
2015,02,24,09,42,6.10
2015,02,24,09,43,6.10
2015,02,24,09,44,6.20
2015,02,24,09,45,6.30
2015,02,24,09,46,6.30
2015,02,24,09,47,6.40
2015,02,24,09,48,6.50
2015,02,24,09,49,6.60
2015,02,24,09,50,6.70
2015,02,24,09,51,6.70
2015,02,24,09,52,6.80
2015,02,24,09,53,6.80
2015,02,24,09,54,6.90
2015,02,24,09,55,7.00
2015,02,24,09,56,7.00
2015,02,24,09,57,7.10
2015,02,24,09,58,7.20
2015,02,24,09,59,7.30
2015,02,24,10,00,7.40
2015,02,24,10,01,7.50
2015,02,24,10,02,7.60
2015,02,24,10,03,7.70
2015,02,24,10,04,7.70
2015,02,24,10,05,7.80
2015,02,24,10,06,7.90
2015,02,24,10,07,8.00
2015,02,24,10,08,8.10
2015,02,24,10,09,8.30
2015,02,24,10,10,8.40
2015,02,24,10,11,8.50
2015,02,24,10,12,8.60
2015,02,24,10,13,8.60
2015,02,24,10,14,8.60
2015,02,24,10,15,8.60
2015,02,24,10,16,8.60
2015,02,24,10,17,8.70
2015,02,24,10,18,8.70
2015,02,24,10,19,8.60
2015,02,24,10,20,8.60
2015,02,24,10,21,8.60
2015,02,24,10,22,8.60
2015,02,24,10,23,8.60
2015,02,24,10,24,8.70
2015,02,24,10,25,8.70
2015,02,24,10,26,8.70
2015,02,24,10,27,8.70
2015,02,24,10,28,8.80
2015,02,24,10,29,8.80
2015,02,24,10,30,8.80
2015,02,24,10,31,8.80
2015,02,24,10,32,8.90
2015,02,24,10,33,9.00
2015,02,24,10,34,9.00
2015,02,24,10,35,9.10
2015,02,24,10,36,9.10
2015,02,24,10,37,9.20
2015,02,24,10,38,9.20
2015,02,24,10,39,9.30
2015,02,24,10,40,9.30
2015,02,24,10,41,9.30
2015,02,24,10,42,9.30
2015,02,24,10,43,9.30
2015,02,24,10,44,9.30
2015,02,24,10,45,9.30
2015,02,24,10,46,9.30
2015,02,24,10,47,9.20
2015,02,24,10,48,9.20
2015,02,24,10,49,9.20
2015,02,24,10,50,9.20
2015,02,24,10,51,9.20
2015,02,24,10,52,9.30
2015,02,24,10,53,9.30
2015,02,24,10,54,9.30
2015,02,24,10,55,9.30
2015,02,24,10,56,9.30
2015,02,24,10,57,9.30
2015,02,24,10,58,9.20
2015,02,24,10,59,9.10
2015,02,24,11,00,9.00
2015,02,24,11,01,9.00
2015,02,24,11,02,8.90
2015,02,24,11,03,8.80
2015,02,24,11,04,8.80
2015,02,24,11,05,8.80
2015,02,24,11,06,8.70
2015,02,24,11,07,8.70
2015,02,24,11,08,8.60
2015,02,24,11,09,8.50
2015,02,24,11,10,8.50
2015,02,24,11,11,8.40
2015,02,24,11,12,8.40
2015,02,24,11,13,8.40
2015,02,24,11,14,8.40
2015,02,24,11,15,8.30
2015,02,24,11,16,8.30
2015,02,24,11,17,8.30
2015,02,24,11,18,8.30
2015,02,24,11,19,8.30
2015,02,24,11,20,8.30
2015,02,24,11,21,8.30
2015,02,24,11,22,8.30
2015,02,24,11,23,8.40
2015,02,24,11,24,8.40
2015,02,24,11,25,8.40
2015,02,24,11,26,8.40
2015,02,24,11,27,8.40
2015,02,24,11,28,8.40
2015,02,24,11,29,8.40
2015,02,24,11,30,8.40
2015,02,24,11,31,8.40
2015,02,24,11,32,8.30
2015,02,24,11,33,8.30
2015,02,24,11,34,8.20
2015,02,24,11,35,8.20
2015,02,24,11,36,8.20
2015,02,24,11,37,8.10
2015,02,24,11,38,8.10
2015,02,24,11,39,8.10
2015,02,24,11,40,8.10
2015,02,24,11,41,8.10
2015,02,24,11,42,8.10
2015,02,24,11,43,8.10
2015,02,24,11,44,8.10
2015,02,24,11,45,8.20
2015,02,24,11,46,8.20
2015,02,24,11,47,8.20
2015,02,24,11,48,8.20
2015,02,24,11,49,8.20
2015,02,24,11,50,8.20
2015,02,24,11,51,8.20
2015,02,24,11,52,8.20
2015,02,24,11,53,8.20
2015,02,24,11,54,8.30
2015,02,24,11,55,8.30
2015,02,24,11,56,8.30
2015,02,24,11,57,8.30
2015,02,24,11,58,8.30
2015,02,24,11,59,8.30
2015,02,24,12,00,8.40
2015,02,24,12,01,8.40
2015,02,24,12,02,8.50
2015,02,24,12,03,8.60
2015,02,24,12,04,8.60
2015,02,24,12,05,8.70
2015,02,24,12,06,8.80
2015,02,24,12,07,8.80
2015,02,24,12,08,8.90
2015,02,24,12,09,9.00
2015,02,24,12,10,9.10
2015,02,24,12,11,9.20
2015,02,24,12,12,9.30
2015,02,24,12,13,9.30
2015,02,24,12,14,9.40
2015,02,24,12,15,9.40
2015,02,24,12,16,9.50
2015,02,24,12,17,9.50
2015,02,24,12,18,9.60
2015,02,24,12,19,9.60
2015,02,24,12,20,9.70
2015,02,24,12,21,9.70
2015,02,24,12,22,9.80
2015,02,24,12,23,9.80
2015,02,24,12,24,9.80
2015,02,24,12,25,9.80
2015,02,24,12,26,9.80
2015,02,24,12,27,9.80
2015,02,24,12,28,9.80
2015,02,24,12,29,9.80
2015,02,24,12,30,9.80
2015,02,24,12,31,9.90
2015,02,24,12,32,10.00
2015,02,24,12,33,10.10
2015,02,24,12,34,10.10
2015,02,24,12,35,10.20
2015,02,24,12,36,10.20
2015,02,24,12,37,10.20
2015,02,24,12,38,10.30
2015,02,24,12,39,10.30
2015,02,24,12,40,10.30
2015,02,24,12,41,10.30
2015,02,24,12,42,10.40
2015,02,24,12,43,10.40
2015,02,24,12,44,10.50
2015,02,24,12,45,10.50
2015,02,24,12,46,10.60
2015,02,24,12,47,10.60
2015,02,24,12,48,10.70
2015,02,24,12,49,10.70
2015,02,24,12,50,10.80
2015,02,24,12,51,10.80
2015,02,24,12,52,10.90
2015,02,24,12,53,10.90
2015,02,24,12,54,10.90
2015,02,24,12,55,11.00
2015,02,24,12,56,11.10
2015,02,24,12,57,11.10
2015,02,24,12,58,11.10
2015,02,24,12,59,11.20
2015,02,24,13,00,11.20
2015,02,24,13,01,11.20
2015,02,24,13,02,11.30
2015,02,24,13,03,11.30
2015,02,24,13,04,11.30
2015,02,24,13,05,11.30
2015,02,24,13,06,11.20
2015,02,24,13,07,11.10
2015,02,24,13,08,11.00
2015,02,24,13,09,10.80
2015,02,24,13,10,10.70
2015,02,24,13,11,10.60
2015,02,24,13,12,10.50
2015,02,24,13,13,10.40
2015,02,24,13,14,10.30
2015,02,24,13,15,10.30
2015,02,24,13,16,10.20
2015,02,24,13,17,10.10
2015,02,24,13,18,10.10
2015,02,24,13,19,10.10
2015,02,24,13,20,10.10
2015,02,24,13,21,10.20
2015,02,24,13,22,10.20
2015,02,24,13,23,10.20
2015,02,24,13,24,10.20
2015,02,24,13,25,10.30
2015,02,24,13,26,10.20
2015,02,24,13,27,10.20
2015,02,24,13,28,10.20
2015,02,24,13,29,10.20
2015,02,24,13,30,10.20
2015,02,24,13,31,10.20
2015,02,24,13,32,10.20
2015,02,24,13,33,10.20
2015,02,24,13,34,10.20
2015,02,24,13,35,10.20
2015,02,24,13,36,10.30
2015,02,24,13,37,10.30
2015,02,24,13,38,10.30
2015,02,24,13,39,10.30
2015,02,24,13,40,10.40
2015,02,24,13,41,10.40
2015,02,24,13,42,10.40
2015,02,24,13,43,10.50
2015,02,24,13,44,10.50
2015,02,24,13,45,10.50
2015,02,24,13,46,10.50
2015,02,24,13,47,10.50
2015,02,24,13,48,10.60
2015,02,24,13,49,10.60
2015,02,24,13,50,10.70
2015,02,24,13,51,10.70
2015,02,24,13,52,10.70
2015,02,24,13,53,10.70
2015,02,24,13,54,10.70
2015,02,24,13,55,10.70
2015,02,24,13,56,10.60
2015,02,24,13,57,10.60
2015,02,24,13,58,10.60
2015,02,24,13,59,10.70
2015,02,24,14,00,10.60
2015,02,24,14,01,10.60
2015,02,24,14,02,10.50
2015,02,24,14,03,10.40
2015,02,24,14,04,10.30
2015,02,24,14,05,10.30
2015,02,24,14,06,10.30
2015,02,24,14,07,10.20
2015,02,24,14,08,10.20
2015,02,24,14,09,10.20
2015,02,24,14,10,10.20
2015,02,24,14,11,10.20
2015,02,24,14,12,10.20
2015,02,24,14,13,10.20
2015,02,24,14,14,10.20
2015,02,24,14,15,10.30
2015,02,24,14,16,10.40
2015,02,24,14,17,10.40
2015,02,24,14,18,10.60
2015,02,24,14,19,10.70
2015,02,24,14,20,10.70
2015,02,24,14,21,10.80
2015,02,24,14,22,10.80
2015,02,24,14,23,10.80
2015,02,24,14,24,10.80
2015,02,24,14,25,10.70
2015,02,24,14,26,10.60
2015,02,24,14,27,10.60
2015,02,24,14,28,10.50
2015,02,24,14,29,10.50
2015,02,24,14,30,10.50
2015,02,24,14,31,10.50
2015,02,24,14,32,10.40
2015,02,24,14,33,10.40
2015,02,24,14,34,10.40
2015,02,24,14,35,10.40
2015,02,24,14,36,10.40
2015,02,24,14,37,10.40
2015,02,24,14,38,10.30
2015,02,24,14,39,10.20
2015,02,24,14,40,10.20
2015,02,24,14,41,10.20
2015,02,24,14,42,10.20
2015,02,24,14,43,10.20
2015,02,24,14,44,10.10
2015,02,24,14,45,10.10
2015,02,24,14,46,10.00
2015,02,24,14,47,10.00
2015,02,24,14,48,9.90
2015,02,24,14,49,9.90
2015,02,24,14,50,9.90
2015,02,24,14,51,9.90
2015,02,24,14,52,10.00
2015,02,24,14,53,10.00
2015,02,24,14,54,10.10
2015,02,24,14,55,10.10
2015,02,24,14,56,10.20
2015,02,24,14,57,10.20
2015,02,24,14,58,10.20
2015,02,24,14,59,10.20
2015,02,24,15,00,10.20
2015,02,24,15,01,10.20
2015,02,24,15,02,10.10
2015,02,24,15,03,10.10
2015,02,24,15,04,10.10
2015,02,24,15,05,10.10
2015,02,24,15,06,10.10
2015,02,24,15,07,10.10
2015,02,24,15,08,10.10
2015,02,24,15,09,10.10
2015,02,24,15,10,10.10
2015,02,24,15,11,10.10
2015,02,24,15,12,10.10
2015,02,24,15,13,10.00
2015,02,24,15,14,9.90
2015,02,24,15,15,9.90
2015,02,24,15,16,9.90
2015,02,24,15,17,9.90
2015,02,24,15,18,9.90
2015,02,24,15,19,9.80
2015,02,24,15,20,9.80
2015,02,24,15,21,9.90
2015,02,24,15,22,9.90
2015,02,24,15,23,10.00
2015,02,24,15,24,10.10
2015,02,24,15,25,10.20
2015,02,24,15,26,10.20
2015,02,24,15,27,10.30
2015,02,24,15,28,10.30
2015,02,24,15,29,10.40
2015,02,24,15,30,10.40
2015,02,24,15,31,10.40
2015,02,24,15,32,10.30
2015,02,24,15,33,10.30
2015,02,24,15,34,10.30
2015,02,24,15,35,10.30
2015,02,24,15,36,10.30
2015,02,24,15,37,10.30
2015,02,24,15,38,10.30
2015,02,24,15,39,10.30
2015,02,24,15,40,10.40
2015,02,24,15,41,10.40
2015,02,24,15,42,10.40
2015,02,24,15,43,10.40
2015,02,24,15,44,10.40
2015,02,24,15,45,10.40
2015,02,24,15,46,10.40
2015,02,24,15,47,10.40
2015,02,24,15,48,10.40
2015,02,24,15,49,10.40
2015,02,24,15,50,10.40
2015,02,24,15,51,10.40
2015,02,24,15,52,10.40
2015,02,24,15,53,10.40
2015,02,24,15,54,10.40
2015,02,24,15,55,10.30
2015,02,24,15,56,10.40
2015,02,24,15,57,10.40
2015,02,24,15,58,10.40
2015,02,24,15,59,10.40
2015,02,24,16,00,10.40
2015,02,24,16,01,10.40
2015,02,24,16,02,10.30
2015,02,24,16,03,10.30
2015,02,24,16,04,10.20
2015,02,24,16,05,10.20
2015,02,24,16,06,10.20
2015,02,24,16,07,10.10
2015,02,24,16,08,10.10
2015,02,24,16,09,10.10
2015,02,24,16,10,10.00
2015,02,24,16,11,10.00
2015,02,24,16,12,10.00
2015,02,24,16,13,9.90
2015,02,24,16,14,9.90
2015,02,24,16,15,9.90
2015,02,24,16,16,9.90
2015,02,24,16,17,9.90
2015,02,24,16,18,9.90
2015,02,24,16,19,9.90
2015,02,24,16,20,9.90
2015,02,24,16,21,9.90
2015,02,24,16,22,9.90
2015,02,24,16,23,9.90
2015,02,24,16,24,9.90
2015,02,24,16,25,9.90
2015,02,24,16,26,9.80
2015,02,24,16,27,9.80
2015,02,24,16,28,9.80
2015,02,24,16,29,9.80
2015,02,24,16,30,9.90
2015,02,24,16,31,9.90
2015,02,24,16,32,10.00
2015,02,24,16,33,10.00
2015,02,24,16,34,10.10
2015,02,24,16,35,10.20
2015,02,24,16,36,10.20
2015,02,24,16,37,10.30
2015,02,24,16,38,10.40
2015,02,24,16,39,10.40
2015,02,24,16,40,10.50
2015,02,24,16,41,10.60
2015,02,24,16,42,10.60
2015,02,24,16,43,10.60
2015,02,24,16,44,10.60
2015,02,24,16,45,10.60
2015,02,24,16,46,10.60
2015,02,24,16,47,10.60
2015,02,24,16,48,10.50
2015,02,24,16,49,10.50
2015,02,24,16,50,10.50
2015,02,24,16,51,10.40
2015,02,24,16,52,10.40
2015,02,24,16,53,10.40
2015,02,24,16,54,10.40
2015,02,24,16,55,10.40
2015,02,24,16,56,10.40
2015,02,24,16,57,10.40
2015,02,24,16,58,10.40
2015,02,24,16,59,10.40
2015,02,24,17,00,10.30
2015,02,24,17,01,10.30
2015,02,24,17,02,10.30
2015,02,24,17,03,10.30
2015,02,24,17,04,10.30
2015,02,24,17,05,10.30
2015,02,24,17,06,10.30
2015,02,24,17,07,10.30
2015,02,24,17,08,10.30
2015,02,24,17,09,10.30
2015,02,24,17,10,10.30
2015,02,24,17,11,10.30
2015,02,24,17,12,10.30
2015,02,24,17,13,10.30
2015,02,24,17,14,10.30
2015,02,24,17,15,10.30
2015,02,24,17,16,10.30
2015,02,24,17,17,10.30
2015,02,24,17,18,10.20
2015,02,24,17,19,10.20
2015,02,24,17,20,10.20
2015,02,24,17,21,10.20
2015,02,24,17,22,10.20
2015,02,24,17,23,10.20
2015,02,24,17,24,10.20
2015,02,24,17,25,10.20
2015,02,24,17,26,10.10
2015,02,24,17,27,10.10
2015,02,24,17,28,10.10
2015,02,24,17,29,10.10
2015,02,24,17,30,10.10
2015,02,24,17,31,10.00
2015,02,24,17,32,10.00
2015,02,24,17,33,9.90
2015,02,24,17,34,9.90
2015,02,24,17,35,9.80
2015,02,24,17,36,9.80
2015,02,24,17,37,9.80
2015,02,24,17,38,9.80
2015,02,24,17,39,9.70
2015,02,24,17,40,9.70
2015,02,24,17,41,9.70
2015,02,24,17,42,9.60
2015,02,24,17,43,9.60
2015,02,24,17,44,9.50
2015,02,24,17,45,9.50
2015,02,24,17,46,9.40
2015,02,24,17,47,9.40
2015,02,24,17,48,9.40
2015,02,24,17,49,9.30
2015,02,24,17,50,9.30
2015,02,24,17,51,9.20
2015,02,24,17,52,9.20
2015,02,24,17,53,9.20
2015,02,24,17,54,9.10